Year,Month,Day,Hour,Minute,Value (Times are PST for temperature in C)
2012,08,04,00,00,19.50
2012,08,04,00,01,19.60
2012,08,04,00,02,19.60
2012,08,04,00,03,19.50
2012,08,04,00,04,19.50
2012,08,04,00,05,19.40
2012,08,04,00,06,19.40
2012,08,04,00,07,19.30
2012,08,04,00,08,19.30
2012,08,04,00,09,19.20
2012,08,04,00,10,19.20
2012,08,04,00,11,19.10
2012,08,04,00,12,19.00
2012,08,04,00,13,19.00
2012,08,04,00,14,18.90
2012,08,04,00,15,18.90
2012,08,04,00,16,18.80
2012,08,04,00,17,18.70
2012,08,04,00,18,18.70
2012,08,04,00,19,18.60
2012,08,04,00,20,18.50
2012,08,04,00,21,18.50
2012,08,04,00,22,18.40
2012,08,04,00,23,18.40
2012,08,04,00,24,18.40
2012,08,04,00,25,18.40
2012,08,04,00,26,18.40
2012,08,04,00,27,18.50
2012,08,04,00,28,18.50
2012,08,04,00,29,18.60
2012,08,04,00,30,18.70
2012,08,04,00,31,18.80
2012,08,04,00,32,19.00
2012,08,04,00,33,19.00
2012,08,04,00,34,19.10
2012,08,04,00,35,19.00
2012,08,04,00,36,19.00
2012,08,04,00,37,18.90
2012,08,04,00,38,18.80
2012,08,04,00,39,18.80
2012,08,04,00,40,18.70
2012,08,04,00,41,18.60
2012,08,04,00,42,18.60
2012,08,04,00,43,18.50
2012,08,04,00,44,18.40
2012,08,04,00,45,18.30
2012,08,04,00,46,18.30
2012,08,04,00,47,18.30
2012,08,04,00,48,18.30
2012,08,04,00,49,18.30
2012,08,04,00,50,18.20
2012,08,04,00,51,18.20
2012,08,04,00,52,18.30
2012,08,04,00,53,18.30
2012,08,04,00,54,18.40
2012,08,04,00,55,18.40
2012,08,04,00,56,18.40
2012,08,04,00,57,18.40
2012,08,04,00,58,18.40
2012,08,04,00,59,18.30
2012,08,04,01,00,18.30
2012,08,04,01,01,18.30
2012,08,04,01,02,18.20
2012,08,04,01,03,18.20
2012,08,04,01,04,18.20
2012,08,04,01,05,18.10
2012,08,04,01,06,18.10
2012,08,04,01,07,18.20
2012,08,04,01,08,18.20
2012,08,04,01,09,18.20
2012,08,04,01,10,18.20
2012,08,04,01,11,18.20
2012,08,04,01,12,18.20
2012,08,04,01,13,18.20
2012,08,04,01,14,18.10
2012,08,04,01,15,18.10
2012,08,04,01,16,18.00
2012,08,04,01,17,18.00
2012,08,04,01,18,18.00
2012,08,04,01,19,17.90
2012,08,04,01,20,17.90
2012,08,04,01,21,17.80
2012,08,04,01,22,17.80
2012,08,04,01,23,17.70
2012,08,04,01,24,17.70
2012,08,04,01,25,17.60
2012,08,04,01,26,17.50
2012,08,04,01,27,17.50
2012,08,04,01,28,17.40
2012,08,04,01,29,17.40
2012,08,04,01,30,17.40
2012,08,04,01,31,17.40
2012,08,04,01,32,17.40
2012,08,04,01,33,17.40
2012,08,04,01,34,17.40
2012,08,04,01,35,17.50
2012,08,04,01,36,17.50
2012,08,04,01,37,17.60
2012,08,04,01,38,17.60
2012,08,04,01,39,17.70
2012,08,04,01,40,17.70
2012,08,04,01,41,17.80
2012,08,04,01,42,17.80
2012,08,04,01,43,17.90
2012,08,04,01,44,17.90
2012,08,04,01,45,18.00
2012,08,04,01,46,18.00
2012,08,04,01,47,18.00
2012,08,04,01,48,18.10
2012,08,04,01,49,18.10
2012,08,04,01,50,18.10
2012,08,04,01,51,18.10
2012,08,04,01,52,18.20
2012,08,04,01,53,18.20
2012,08,04,01,54,18.20
2012,08,04,01,55,18.20
2012,08,04,01,56,18.20
2012,08,04,01,57,18.20
2012,08,04,01,58,18.10
2012,08,04,01,59,18.10
2012,08,04,02,00,18.10
2012,08,04,02,01,18.10
2012,08,04,02,02,18.10
2012,08,04,02,03,18.00
2012,08,04,02,04,18.00
2012,08,04,02,05,18.00
2012,08,04,02,06,18.00
2012,08,04,02,07,18.00
2012,08,04,02,08,18.00
2012,08,04,02,09,18.00
2012,08,04,02,10,18.00
2012,08,04,02,11,18.00
2012,08,04,02,12,18.00
2012,08,04,02,13,18.00
2012,08,04,02,14,18.00
2012,08,04,02,15,18.00
2012,08,04,02,16,18.00
2012,08,04,02,17,18.00
2012,08,04,02,18,18.00
2012,08,04,02,19,18.00
2012,08,04,02,20,18.10
2012,08,04,02,21,18.10
2012,08,04,02,22,18.10
2012,08,04,02,23,18.10
2012,08,04,02,24,18.10
2012,08,04,02,25,18.10
2012,08,04,02,26,18.10
2012,08,04,02,27,18.00
2012,08,04,02,28,17.90
2012,08,04,02,29,17.90
2012,08,04,02,30,17.80
2012,08,04,02,31,17.70
2012,08,04,02,32,17.70
2012,08,04,02,33,17.60
2012,08,04,02,34,17.50
2012,08,04,02,35,17.40
2012,08,04,02,36,17.50
2012,08,04,02,37,17.50
2012,08,04,02,38,17.60
2012,08,04,02,39,17.70
2012,08,04,02,40,17.70
2012,08,04,02,41,17.80
2012,08,04,02,42,17.80
2012,08,04,02,43,17.90
2012,08,04,02,44,17.90
2012,08,04,02,45,18.00
2012,08,04,02,46,18.00
2012,08,04,02,47,18.10
2012,08,04,02,48,18.10
2012,08,04,02,49,18.10
2012,08,04,02,50,18.10
2012,08,04,02,51,18.10
2012,08,04,02,52,18.00
2012,08,04,02,53,18.00
2012,08,04,02,54,17.90
2012,08,04,02,55,17.90
2012,08,04,02,56,17.80
2012,08,04,02,57,17.80
2012,08,04,02,58,17.80
2012,08,04,02,59,17.80
2012,08,04,03,00,17.80
2012,08,04,03,01,17.80
2012,08,04,03,02,17.80
2012,08,04,03,03,17.80
2012,08,04,03,04,17.80
2012,08,04,03,05,17.80
2012,08,04,03,06,17.80
2012,08,04,03,07,17.90
2012,08,04,03,08,17.90
2012,08,04,03,09,17.90
2012,08,04,03,10,18.00
2012,08,04,03,11,18.00
2012,08,04,03,12,18.00
2012,08,04,03,13,18.00
2012,08,04,03,14,18.00
2012,08,04,03,15,18.00
2012,08,04,03,16,18.10
2012,08,04,03,17,18.10
2012,08,04,03,18,18.20
2012,08,04,03,19,18.30
2012,08,04,03,20,18.40
2012,08,04,03,21,18.50
2012,08,04,03,22,18.70
2012,08,04,03,23,18.70
2012,08,04,03,24,18.80
2012,08,04,03,25,18.80
2012,08,04,03,26,18.80
2012,08,04,03,27,18.80
2012,08,04,03,28,18.80
2012,08,04,03,29,18.80
2012,08,04,03,30,18.80
2012,08,04,03,31,18.80
2012,08,04,03,32,18.70
2012,08,04,03,33,18.70
2012,08,04,03,34,18.70
2012,08,04,03,35,18.60
2012,08,04,03,36,18.60
2012,08,04,03,37,18.60
2012,08,04,03,38,18.50
2012,08,04,03,39,18.50
2012,08,04,03,40,18.50
2012,08,04,03,41,18.50
2012,08,04,03,42,18.50
2012,08,04,03,43,18.50
2012,08,04,03,44,18.50
2012,08,04,03,45,18.40
2012,08,04,03,46,18.40
2012,08,04,03,47,18.40
2012,08,04,03,48,18.40
2012,08,04,03,49,18.30
2012,08,04,03,50,18.30
2012,08,04,03,51,18.30
2012,08,04,03,52,18.30
2012,08,04,03,53,18.30
2012,08,04,03,54,18.30
2012,08,04,03,55,18.30
2012,08,04,03,56,18.40
2012,08,04,03,57,18.40
2012,08,04,03,58,18.40
2012,08,04,03,59,18.30
2012,08,04,04,00,18.30
2012,08,04,04,01,18.20
2012,08,04,04,02,18.10
2012,08,04,04,03,18.00
2012,08,04,04,04,18.00
2012,08,04,04,05,18.00
2012,08,04,04,06,18.00
2012,08,04,04,07,18.00
2012,08,04,04,08,18.00
2012,08,04,04,09,18.10
2012,08,04,04,10,18.10
2012,08,04,04,11,18.10
2012,08,04,04,12,18.10
2012,08,04,04,13,18.10
2012,08,04,04,14,18.10
2012,08,04,04,15,18.10
2012,08,04,04,16,18.10
2012,08,04,04,17,18.00
2012,08,04,04,18,18.00
2012,08,04,04,19,18.00
2012,08,04,04,20,18.00
2012,08,04,04,21,18.00
2012,08,04,04,22,17.90
2012,08,04,04,23,17.90
2012,08,04,04,24,17.90
2012,08,04,04,25,17.90
2012,08,04,04,26,17.80
2012,08,04,04,27,17.80
2012,08,04,04,28,17.80
2012,08,04,04,29,17.70
2012,08,04,04,30,17.70
2012,08,04,04,31,17.70
2012,08,04,04,32,17.70
2012,08,04,04,33,17.70
2012,08,04,04,34,17.70
2012,08,04,04,35,17.70
2012,08,04,04,36,17.70
2012,08,04,04,37,17.70
2012,08,04,04,38,17.70
2012,08,04,04,39,17.70
2012,08,04,04,40,17.70
2012,08,04,04,41,17.70
2012,08,04,04,42,17.70
2012,08,04,04,43,17.70
2012,08,04,04,44,17.70
2012,08,04,04,45,17.70
2012,08,04,04,46,17.60
2012,08,04,04,47,17.60
2012,08,04,04,48,17.60
2012,08,04,04,49,17.60
2012,08,04,04,50,17.70
2012,08,04,04,51,17.70
2012,08,04,04,52,17.70
2012,08,04,04,53,17.70
2012,08,04,04,54,17.70
2012,08,04,04,55,17.60
2012,08,04,04,56,17.60
2012,08,04,04,57,17.50
2012,08,04,04,58,17.50
2012,08,04,04,59,17.40
2012,08,04,05,00,17.40
2012,08,04,05,01,17.30
2012,08,04,05,02,17.30
2012,08,04,05,03,17.30
2012,08,04,05,04,17.30
2012,08,04,05,05,17.40
2012,08,04,05,06,17.40
2012,08,04,05,07,17.50
2012,08,04,05,08,17.50
2012,08,04,05,09,17.60
2012,08,04,05,10,17.60
2012,08,04,05,11,17.70
2012,08,04,05,12,17.70
2012,08,04,05,13,17.70
2012,08,04,05,14,17.80
2012,08,04,05,15,17.80
2012,08,04,05,16,17.70
2012,08,04,05,17,17.70
2012,08,04,05,18,17.70
2012,08,04,05,19,17.80
2012,08,04,05,20,17.80
2012,08,04,05,21,17.80
2012,08,04,05,22,17.80
2012,08,04,05,23,17.80
2012,08,04,05,24,17.80
2012,08,04,05,25,17.80
2012,08,04,05,26,17.80
2012,08,04,05,27,17.80
2012,08,04,05,28,17.80
2012,08,04,05,29,17.80
2012,08,04,05,30,17.70
2012,08,04,05,31,17.70
2012,08,04,05,32,17.70
2012,08,04,05,33,17.70
2012,08,04,05,34,17.70
2012,08,04,05,35,17.70
2012,08,04,05,36,17.70
2012,08,04,05,37,17.70
2012,08,04,05,38,17.70
2012,08,04,05,39,17.70
2012,08,04,05,40,17.70
2012,08,04,05,41,17.70
2012,08,04,05,42,17.70
2012,08,04,05,43,17.70
2012,08,04,05,44,17.70
2012,08,04,05,45,17.70
2012,08,04,05,46,17.70
2012,08,04,05,47,17.60
2012,08,04,05,48,17.60
2012,08,04,05,49,17.50
2012,08,04,05,50,17.50
2012,08,04,05,51,17.50
2012,08,04,05,52,17.40
2012,08,04,05,53,17.40
2012,08,04,05,54,17.40
2012,08,04,05,55,17.40
2012,08,04,05,56,17.50
2012,08,04,05,57,17.50
2012,08,04,05,58,17.50
2012,08,04,05,59,17.60
2012,08,04,06,00,17.60
2012,08,04,06,01,17.60
2012,08,04,06,02,17.60
2012,08,04,06,03,17.50
2012,08,04,06,04,17.40
2012,08,04,06,05,17.40
2012,08,04,06,06,17.30
2012,08,04,06,07,17.30
2012,08,04,06,08,17.20
2012,08,04,06,09,17.20
2012,08,04,06,10,17.20
2012,08,04,06,11,17.10
2012,08,04,06,12,17.10
2012,08,04,06,13,17.10
2012,08,04,06,14,17.10
2012,08,04,06,15,17.10
2012,08,04,06,16,17.10
2012,08,04,06,17,17.10
2012,08,04,06,18,17.20
2012,08,04,06,19,17.20
2012,08,04,06,20,17.30
2012,08,04,06,21,17.30
2012,08,04,06,22,17.30
2012,08,04,06,23,17.40
2012,08,04,06,24,17.40
2012,08,04,06,25,17.40
2012,08,04,06,26,17.40
2012,08,04,06,27,17.40
2012,08,04,06,28,17.40
2012,08,04,06,29,17.50
2012,08,04,06,30,17.50
2012,08,04,06,31,17.60
2012,08,04,06,32,17.60
2012,08,04,06,33,17.70
2012,08,04,06,34,17.70
2012,08,04,06,35,17.80
2012,08,04,06,36,17.80
2012,08,04,06,37,17.90
2012,08,04,06,38,18.00
2012,08,04,06,39,18.00
2012,08,04,06,40,18.10
2012,08,04,06,41,18.10
2012,08,04,06,42,18.20
2012,08,04,06,43,18.20
2012,08,04,06,44,18.30
2012,08,04,06,45,18.30
2012,08,04,06,46,18.30
2012,08,04,06,47,18.30
2012,08,04,06,48,18.40
2012,08,04,06,49,18.40
2012,08,04,06,50,18.40
2012,08,04,06,51,18.40
2012,08,04,06,52,18.40
2012,08,04,06,53,18.30
2012,08,04,06,54,18.30
2012,08,04,06,55,18.30
2012,08,04,06,56,18.20
2012,08,04,06,57,18.20
2012,08,04,06,58,18.20
2012,08,04,06,59,18.20
2012,08,04,07,00,18.10
2012,08,04,07,01,18.10
2012,08,04,07,02,18.10
2012,08,04,07,03,18.10
2012,08,04,07,04,18.20
2012,08,04,07,05,18.20
2012,08,04,07,06,18.20
2012,08,04,07,07,18.20
2012,08,04,07,08,18.30
2012,08,04,07,09,18.30
2012,08,04,07,10,18.40
2012,08,04,07,11,18.40
2012,08,04,07,12,18.50
2012,08,04,07,13,18.50
2012,08,04,07,14,18.60
2012,08,04,07,15,18.60
2012,08,04,07,16,18.70
2012,08,04,07,17,18.70
2012,08,04,07,18,18.80
2012,08,04,07,19,18.80
2012,08,04,07,20,18.80
2012,08,04,07,21,18.80
2012,08,04,07,22,18.90
2012,08,04,07,23,18.90
2012,08,04,07,24,19.00
2012,08,04,07,25,19.00
2012,08,04,07,26,19.10
2012,08,04,07,27,19.10
2012,08,04,07,28,19.20
2012,08,04,07,29,19.30
2012,08,04,07,30,19.30
2012,08,04,07,31,19.40
2012,08,04,07,32,19.40
2012,08,04,07,33,19.50
2012,08,04,07,34,19.60
2012,08,04,07,35,19.60
2012,08,04,07,36,19.70
2012,08,04,07,37,19.70
2012,08,04,07,38,19.80
2012,08,04,07,39,19.90
2012,08,04,07,40,19.90
2012,08,04,07,41,20.00
2012,08,04,07,42,20.10
2012,08,04,07,43,20.20
2012,08,04,07,44,20.20
2012,08,04,07,45,20.30
2012,08,04,07,46,20.40
2012,08,04,07,47,20.40
2012,08,04,07,48,20.50
2012,08,04,07,49,20.50
2012,08,04,07,50,20.60
2012,08,04,07,51,20.60
2012,08,04,07,52,20.60
2012,08,04,07,53,20.70
2012,08,04,07,54,20.80
2012,08,04,07,55,20.80
2012,08,04,07,56,20.90
2012,08,04,07,57,20.90
2012,08,04,07,58,21.00
2012,08,04,07,59,21.10
2012,08,04,08,00,21.20
2012,08,04,08,01,21.20
2012,08,04,08,02,21.20
2012,08,04,08,03,21.30
2012,08,04,08,04,21.30
2012,08,04,08,05,21.30
2012,08,04,08,06,21.30
2012,08,04,08,07,21.30
2012,08,04,08,08,21.30
2012,08,04,08,09,21.30
2012,08,04,08,10,21.30
2012,08,04,08,11,21.40
2012,08,04,08,12,21.40
2012,08,04,08,13,21.40
2012,08,04,08,14,21.40
2012,08,04,08,15,21.50
2012,08,04,08,16,21.50
2012,08,04,08,17,21.60
2012,08,04,08,18,21.60
2012,08,04,08,19,21.70
2012,08,04,08,20,21.70
2012,08,04,08,21,21.70
2012,08,04,08,22,21.80
2012,08,04,08,23,21.80
2012,08,04,08,24,21.80
2012,08,04,08,25,21.80
2012,08,04,08,26,21.80
2012,08,04,08,27,21.90
2012,08,04,08,28,22.00
2012,08,04,08,29,22.00
2012,08,04,08,30,22.10
2012,08,04,08,31,22.10
2012,08,04,08,32,22.20
2012,08,04,08,33,22.20
2012,08,04,08,34,22.30
2012,08,04,08,35,22.30
2012,08,04,08,36,22.30
2012,08,04,08,37,22.30
2012,08,04,08,38,22.40
2012,08,04,08,39,22.50
2012,08,04,08,40,22.60
2012,08,04,08,41,22.60
2012,08,04,08,42,22.70
2012,08,04,08,43,22.80
2012,08,04,08,44,22.90
2012,08,04,08,45,23.00
2012,08,04,08,46,23.00
2012,08,04,08,47,23.10
2012,08,04,08,48,23.20
2012,08,04,08,49,23.30
2012,08,04,08,50,23.30
2012,08,04,08,51,23.30
2012,08,04,08,52,23.30
2012,08,04,08,53,23.40
2012,08,04,08,54,23.40
2012,08,04,08,55,23.40
2012,08,04,08,56,23.50
2012,08,04,08,57,23.50
2012,08,04,08,58,23.50
2012,08,04,08,59,23.60
2012,08,04,09,00,23.60
2012,08,04,09,01,23.70
2012,08,04,09,02,23.80
2012,08,04,09,03,23.90
2012,08,04,09,04,23.90
2012,08,04,09,05,24.00
2012,08,04,09,06,24.10
2012,08,04,09,07,24.20
2012,08,04,09,08,24.20
2012,08,04,09,09,24.30
2012,08,04,09,10,24.30
2012,08,04,09,11,24.30
2012,08,04,09,12,24.40
2012,08,04,09,13,24.40
2012,08,04,09,14,24.40
2012,08,04,09,15,24.40
2012,08,04,09,16,24.40
2012,08,04,09,17,24.40
2012,08,04,09,18,24.50
2012,08,04,09,19,24.60
2012,08,04,09,20,24.70
2012,08,04,09,21,24.70
2012,08,04,09,22,24.70
2012,08,04,09,23,24.70
2012,08,04,09,24,24.80
2012,08,04,09,25,24.80
2012,08,04,09,26,24.90
2012,08,04,09,27,24.90
2012,08,04,09,28,25.00
2012,08,04,09,29,25.00
2012,08,04,09,30,25.10
2012,08,04,09,31,25.20
2012,08,04,09,32,25.30
2012,08,04,09,33,25.30
2012,08,04,09,34,25.40
2012,08,04,09,35,25.40
2012,08,04,09,36,25.40
2012,08,04,09,37,25.50
2012,08,04,09,38,25.60
2012,08,04,09,39,25.60
2012,08,04,09,40,25.70
2012,08,04,09,41,25.70
2012,08,04,09,42,25.70
2012,08,04,09,43,25.70
2012,08,04,09,44,25.70
2012,08,04,09,45,25.70
2012,08,04,09,46,25.60
2012,08,04,09,47,25.70
2012,08,04,09,48,25.70
2012,08,04,09,49,25.80
2012,08,04,09,50,25.80
2012,08,04,09,51,25.90
2012,08,04,09,52,25.90
2012,08,04,09,53,26.00
2012,08,04,09,54,26.00
2012,08,04,09,55,26.10
2012,08,04,09,56,26.10
2012,08,04,09,57,26.20
2012,08,04,09,58,26.20
2012,08,04,09,59,26.30
2012,08,04,10,00,26.30
2012,08,04,10,01,26.30
2012,08,04,10,02,26.30
2012,08,04,10,03,26.30
2012,08,04,10,04,26.30
2012,08,04,10,05,26.30
2012,08,04,10,06,26.30
2012,08,04,10,07,26.30
2012,08,04,10,08,26.30
2012,08,04,10,09,26.30
2012,08,04,10,10,26.30
2012,08,04,10,11,26.20
2012,08,04,10,12,26.10
2012,08,04,10,13,25.90
2012,08,04,10,14,25.80
2012,08,04,10,15,25.80
2012,08,04,10,16,25.70
2012,08,04,10,17,25.60
2012,08,04,10,18,25.50
2012,08,04,10,19,25.40
2012,08,04,10,20,25.50
2012,08,04,10,21,25.50
2012,08,04,10,22,25.50
2012,08,04,10,23,25.60
2012,08,04,10,24,25.60
2012,08,04,10,25,25.60
2012,08,04,10,26,25.60
2012,08,04,10,27,25.70
2012,08,04,10,28,25.70
2012,08,04,10,29,25.70
2012,08,04,10,30,25.70
2012,08,04,10,31,25.60
2012,08,04,10,32,25.60
2012,08,04,10,33,25.70
2012,08,04,10,34,25.70
2012,08,04,10,35,25.70
2012,08,04,10,36,25.70
2012,08,04,10,37,25.80
2012,08,04,10,38,25.90
2012,08,04,10,39,25.90
2012,08,04,10,40,26.00
2012,08,04,10,41,26.20
2012,08,04,10,42,26.40
2012,08,04,10,43,26.50
2012,08,04,10,44,26.50
2012,08,04,10,45,26.50
2012,08,04,10,46,26.70
2012,08,04,10,47,26.80
2012,08,04,10,48,26.80
2012,08,04,10,49,26.80
2012,08,04,10,50,26.70
2012,08,04,10,51,26.50
2012,08,04,10,52,26.40
2012,08,04,10,53,26.40
2012,08,04,10,54,26.30
2012,08,04,10,55,26.20
2012,08,04,10,56,26.20
2012,08,04,10,57,26.30
2012,08,04,10,58,26.30
2012,08,04,10,59,26.20
2012,08,04,11,00,26.20
2012,08,04,11,01,26.30
2012,08,04,11,02,26.50
2012,08,04,11,03,26.70
2012,08,04,11,04,26.70
2012,08,04,11,05,26.70
2012,08,04,11,06,26.70
2012,08,04,11,07,26.80
2012,08,04,11,08,26.80
2012,08,04,11,09,27.00
2012,08,04,11,10,27.00
2012,08,04,11,11,27.00
2012,08,04,11,12,26.90
2012,08,04,11,13,26.80
2012,08,04,11,14,26.70
2012,08,04,11,15,26.60
2012,08,04,11,16,26.60
2012,08,04,11,17,26.60
2012,08,04,11,18,26.60
2012,08,04,11,19,26.60
2012,08,04,11,20,26.60
2012,08,04,11,21,26.70
2012,08,04,11,22,26.70
2012,08,04,11,23,26.80
2012,08,04,11,24,26.90
2012,08,04,11,25,27.00
2012,08,04,11,26,27.10
2012,08,04,11,27,27.00
2012,08,04,11,28,27.00
2012,08,04,11,29,27.00
2012,08,04,11,30,27.10
2012,08,04,11,31,27.10
2012,08,04,11,32,27.30
2012,08,04,11,33,27.30
2012,08,04,11,34,27.40
2012,08,04,11,35,27.50
2012,08,04,11,36,27.70
2012,08,04,11,37,27.90
2012,08,04,11,38,28.00
2012,08,04,11,39,28.00
2012,08,04,11,40,28.00
2012,08,04,11,41,27.90
2012,08,04,11,42,27.80
2012,08,04,11,43,27.80
2012,08,04,11,44,27.80
2012,08,04,11,45,27.80
2012,08,04,11,46,27.80
2012,08,04,11,47,27.90
2012,08,04,11,48,28.00
2012,08,04,11,49,27.80
2012,08,04,11,50,27.70
2012,08,04,11,51,27.70
2012,08,04,11,52,27.50
2012,08,04,11,53,27.40
2012,08,04,11,54,27.30
2012,08,04,11,55,27.20
2012,08,04,11,56,27.10
2012,08,04,11,57,27.10
2012,08,04,11,58,27.20
2012,08,04,11,59,27.40
2012,08,04,12,00,27.40
2012,08,04,12,01,27.40
2012,08,04,12,02,27.40
2012,08,04,12,03,27.50
2012,08,04,12,04,27.60
2012,08,04,12,05,27.70
2012,08,04,12,06,27.90
2012,08,04,12,07,27.90
2012,08,04,12,08,27.90
2012,08,04,12,09,28.00
2012,08,04,12,10,28.00
2012,08,04,12,11,28.00
2012,08,04,12,12,27.90
2012,08,04,12,13,27.90
2012,08,04,12,14,27.80
2012,08,04,12,15,27.90
2012,08,04,12,16,27.90
2012,08,04,12,17,27.90
2012,08,04,12,18,27.90
2012,08,04,12,19,27.90
2012,08,04,12,20,27.80
2012,08,04,12,21,27.80
2012,08,04,12,22,27.70
2012,08,04,12,23,27.80
2012,08,04,12,24,27.90
2012,08,04,12,25,28.00
2012,08,04,12,26,28.10
2012,08,04,12,27,28.10
2012,08,04,12,28,27.90
2012,08,04,12,29,27.80
2012,08,04,12,30,27.60
2012,08,04,12,31,27.60
2012,08,04,12,32,27.60
2012,08,04,12,33,27.70
2012,08,04,12,34,27.80
2012,08,04,12,35,27.80
2012,08,04,12,36,27.80
2012,08,04,12,37,27.80
2012,08,04,12,38,27.80
2012,08,04,12,39,27.70
2012,08,04,12,40,27.70
2012,08,04,12,41,27.70
2012,08,04,12,42,27.60
2012,08,04,12,43,27.70
2012,08,04,12,44,27.80
2012,08,04,12,45,28.00
2012,08,04,12,46,28.10
2012,08,04,12,47,28.20
2012,08,04,12,48,28.20
2012,08,04,12,49,28.20
2012,08,04,12,50,28.00
2012,08,04,12,51,27.80
2012,08,04,12,52,27.60
2012,08,04,12,53,27.60
2012,08,04,12,54,27.60
2012,08,04,12,55,27.60
2012,08,04,12,56,27.60
2012,08,04,12,57,27.60
2012,08,04,12,58,27.60
2012,08,04,12,59,27.70
2012,08,04,13,00,27.60
2012,08,04,13,01,27.60
2012,08,04,13,02,27.60
2012,08,04,13,03,27.70
2012,08,04,13,04,27.80
2012,08,04,13,05,27.80
2012,08,04,13,06,27.90
2012,08,04,13,07,27.90
2012,08,04,13,08,27.90
2012,08,04,13,09,27.90
2012,08,04,13,10,27.90
2012,08,04,13,11,28.00
2012,08,04,13,12,28.00
2012,08,04,13,13,28.00
2012,08,04,13,14,28.10
2012,08,04,13,15,28.10
2012,08,04,13,16,28.00
2012,08,04,13,17,28.00
2012,08,04,13,18,28.10
2012,08,04,13,19,28.30
2012,08,04,13,20,28.40
2012,08,04,13,21,28.50
2012,08,04,13,22,28.40
2012,08,04,13,23,28.40
2012,08,04,13,24,28.40
2012,08,04,13,25,28.40
2012,08,04,13,26,28.30
2012,08,04,13,27,28.40
2012,08,04,13,28,28.40
2012,08,04,13,29,28.50
2012,08,04,13,30,28.50
2012,08,04,13,31,28.60
2012,08,04,13,32,28.60
2012,08,04,13,33,28.70
2012,08,04,13,34,28.80
2012,08,04,13,35,28.90
2012,08,04,13,36,29.00
2012,08,04,13,37,29.10
2012,08,04,13,38,29.20
2012,08,04,13,39,29.20
2012,08,04,13,40,29.10
2012,08,04,13,41,29.00
2012,08,04,13,42,28.90
2012,08,04,13,43,28.90
2012,08,04,13,44,28.90
2012,08,04,13,45,29.00
2012,08,04,13,46,29.00
2012,08,04,13,47,29.00
2012,08,04,13,48,29.00
2012,08,04,13,49,29.20
2012,08,04,13,50,29.30
2012,08,04,13,51,29.50
2012,08,04,13,52,29.70
2012,08,04,13,53,29.60
2012,08,04,13,54,29.60
2012,08,04,13,55,29.60
2012,08,04,13,56,29.50
2012,08,04,13,57,29.50
2012,08,04,13,58,29.40
2012,08,04,13,59,29.30
2012,08,04,14,00,29.30
2012,08,04,14,01,29.30
2012,08,04,14,02,29.30
2012,08,04,14,03,29.20
2012,08,04,14,04,29.10
2012,08,04,14,05,29.10
2012,08,04,14,06,29.10
2012,08,04,14,07,29.00
2012,08,04,14,08,29.10
2012,08,04,14,09,29.20
2012,08,04,14,10,29.30
2012,08,04,14,11,29.40
2012,08,04,14,12,29.40
2012,08,04,14,13,29.40
2012,08,04,14,14,29.40
2012,08,04,14,15,29.40
2012,08,04,14,16,29.40
2012,08,04,14,17,29.30
2012,08,04,14,18,29.30
2012,08,04,14,19,29.20
2012,08,04,14,20,29.20
2012,08,04,14,21,29.30
2012,08,04,14,22,29.30
2012,08,04,14,23,29.30
2012,08,04,14,24,29.30
2012,08,04,14,25,29.20
2012,08,04,14,26,29.20
2012,08,04,14,27,29.20
2012,08,04,14,28,29.30
2012,08,04,14,29,29.30
2012,08,04,14,30,29.20
2012,08,04,14,31,29.00
2012,08,04,14,32,29.00
2012,08,04,14,33,29.00
2012,08,04,14,34,29.00
2012,08,04,14,35,29.00
2012,08,04,14,36,28.90
2012,08,04,14,37,28.90
2012,08,04,14,38,29.00
2012,08,04,14,39,29.10
2012,08,04,14,40,29.20
2012,08,04,14,41,29.30
2012,08,04,14,42,29.40
2012,08,04,14,43,29.40
2012,08,04,14,44,29.40
2012,08,04,14,45,29.40
2012,08,04,14,46,29.40
2012,08,04,14,47,29.50
2012,08,04,14,48,29.50
2012,08,04,14,49,29.70
2012,08,04,14,50,29.80
2012,08,04,14,51,29.90
2012,08,04,14,52,29.90
2012,08,04,14,53,30.00
2012,08,04,14,54,29.90
2012,08,04,14,55,30.00
2012,08,04,14,56,30.10
2012,08,04,14,57,30.10
2012,08,04,14,58,30.20
2012,08,04,14,59,30.10
2012,08,04,15,00,30.00
2012,08,04,15,01,30.00
2012,08,04,15,02,30.00
2012,08,04,15,03,29.90
2012,08,04,15,04,29.90
2012,08,04,15,05,29.80
2012,08,04,15,06,29.80
2012,08,04,15,07,29.80
2012,08,04,15,08,29.90
2012,08,04,15,09,29.90
2012,08,04,15,10,30.00
2012,08,04,15,11,30.00
2012,08,04,15,12,30.00
2012,08,04,15,13,30.10
2012,08,04,15,14,30.30
2012,08,04,15,15,30.30
2012,08,04,15,16,30.40
2012,08,04,15,17,30.40
2012,08,04,15,18,30.30
2012,08,04,15,19,30.20
2012,08,04,15,20,30.20
2012,08,04,15,21,30.10
2012,08,04,15,22,30.00
2012,08,04,15,23,30.00
2012,08,04,15,24,30.00
2012,08,04,15,25,30.10
2012,08,04,15,26,30.30
2012,08,04,15,27,30.30
2012,08,04,15,28,30.40
2012,08,04,15,29,30.40
2012,08,04,15,30,30.20
2012,08,04,15,31,30.00
2012,08,04,15,32,30.00
2012,08,04,15,33,29.90
2012,08,04,15,34,29.80
2012,08,04,15,35,29.80
2012,08,04,15,36,29.70
2012,08,04,15,37,29.70
2012,08,04,15,38,29.50
2012,08,04,15,39,29.40
2012,08,04,15,40,29.40
2012,08,04,15,41,29.40
2012,08,04,15,42,29.40
2012,08,04,15,43,29.40
2012,08,04,15,44,29.50
2012,08,04,15,45,29.70
2012,08,04,15,46,29.80
2012,08,04,15,47,29.80
2012,08,04,15,48,29.90
2012,08,04,15,49,30.10
2012,08,04,15,50,30.30
2012,08,04,15,51,30.40
2012,08,04,15,52,30.30
2012,08,04,15,53,30.20
2012,08,04,15,54,30.10
2012,08,04,15,55,30.10
2012,08,04,15,56,30.10
2012,08,04,15,57,30.00
2012,08,04,15,58,30.00
2012,08,04,15,59,30.10
2012,08,04,16,00,30.20
2012,08,04,16,01,30.30
2012,08,04,16,02,30.30
2012,08,04,16,03,30.20
2012,08,04,16,04,30.20
2012,08,04,16,05,30.30
2012,08,04,16,06,30.40
2012,08,04,16,07,30.40
2012,08,04,16,08,30.40
2012,08,04,16,09,30.40
2012,08,04,16,10,30.40
2012,08,04,16,11,30.40
2012,08,04,16,12,30.50
2012,08,04,16,13,30.50
2012,08,04,16,14,30.40
2012,08,04,16,15,30.40
2012,08,04,16,16,30.40
2012,08,04,16,17,30.40
2012,08,04,16,18,30.30
2012,08,04,16,19,30.20
2012,08,04,16,20,30.20
2012,08,04,16,21,30.20
2012,08,04,16,22,30.30
2012,08,04,16,23,30.30
2012,08,04,16,24,30.30
2012,08,04,16,25,30.30
2012,08,04,16,26,30.30
2012,08,04,16,27,30.30
2012,08,04,16,28,30.30
2012,08,04,16,29,30.40
2012,08,04,16,30,30.40
2012,08,04,16,31,30.50
2012,08,04,16,32,30.60
2012,08,04,16,33,30.60
2012,08,04,16,34,30.70
2012,08,04,16,35,30.70
2012,08,04,16,36,30.70
2012,08,04,16,37,30.70
2012,08,04,16,38,30.70
2012,08,04,16,39,30.70
2012,08,04,16,40,30.60
2012,08,04,16,41,30.60
2012,08,04,16,42,30.60
2012,08,04,16,43,30.50
2012,08,04,16,44,30.50
2012,08,04,16,45,30.50
2012,08,04,16,46,30.50
2012,08,04,16,47,30.50
2012,08,04,16,48,30.50
2012,08,04,16,49,30.50
2012,08,04,16,50,30.50
2012,08,04,16,51,30.50
2012,08,04,16,52,30.40
2012,08,04,16,53,30.40
2012,08,04,16,54,30.40
2012,08,04,16,55,30.40
2012,08,04,16,56,30.40
2012,08,04,16,57,30.30
2012,08,04,16,58,30.30
2012,08,04,16,59,30.40
2012,08,04,17,00,30.50
2012,08,04,17,01,30.60
2012,08,04,17,02,30.60
2012,08,04,17,03,30.60
2012,08,04,17,04,30.60
2012,08,04,17,05,30.60
2012,08,04,17,06,30.50
2012,08,04,17,07,30.50
2012,08,04,17,08,30.50
2012,08,04,17,09,30.50
2012,08,04,17,10,30.50
2012,08,04,17,11,30.60
2012,08,04,17,12,30.60
2012,08,04,17,13,30.50
2012,08,04,17,14,30.40
2012,08,04,17,15,30.40
2012,08,04,17,16,30.50
2012,08,04,17,17,30.40
2012,08,04,17,18,30.40
2012,08,04,17,19,30.40